Regional Weather Roundup
Issued by NWS

Home | Current Version | Previous Version | Graphics & Text | Print | Product List | Glossary On
Versions: 1 2 3 4 5 6 7 8 9 10 11 12 13 14 15 16 17 18 19 20 21 22 23 24 25 26 27 28 29 30 31 32 33 34 35 36 37 38 39 40 41 42 43 44 45 46 47 48 49 50
000
ASUS45 KTFX 230810
RWRMT
MONTANA REGIONAL WEATHER ROUNDUP
NATIONAL WEATHER SERVICE GREAT FALLS MT
200 AM MDT SAT MAY 23 2015

NOTE: "FAIR" INDICATES FEW OR NO CLOUDS BELOW 12000 FEET WITH NO
SIGNIFICANT WEATHER AND/OR OBSTRUCTIONS TO VISIBILITY.

MTZ001>007-043-230900-
WEST OF THE DIVIDE

CITY           SKY/WX    TMP DP  RH WIND       PRES   REMARKS
KALISPELL      MOSUNNY   57  36  45 N9        29.95R
MISSOULA       CLOUDY    61  36  39 SE5       29.95R
BUTTE          MOCLDY    44  39  82 S3        30.00S
MULLAN PASS    MOCLDY    51  30  44 E6        30.04R
DEER LODGE       N/A     48  39  71 CALM      30.03R
EUREKA           N/A     52  34  50 CALM      29.99R
HAMILTON         N/A     48  43  81 S5        29.96R
LIBBY            N/A     50  37  62 CALM      29.98R
RONAN            N/A     58  40  51 NE1       29.99R
THOMPSON FALLS   N/A     50  39  65 CALM      29.98R
$$

MTZ008-052>055-230900-
SOUTHWEST MONTANA

CITY           SKY/WX    TMP DP  RH WIND       PRES   REMARKS
BOZEMAN        CLOUDY    49  43  80 CALM      29.97R
DILLON         MOCLDY    45  41  86 SE7       29.96S
W YELLOWSTONE  CLOUDY    45  39  81 NE3       29.99S
THREE FORKS      N/A     50  18  28 CALM      29.96S
TWIN BRIDGES     N/A     52  41  66 N13       29.95S
$$

MTZ009-010-012-014-046-048-049-054-230900-
EAST SLOPES AND CENTRAL MONTANA

CITY           SKY/WX    TMP DP  RH WIND       PRES   REMARKS
CUT BANK       PTCLDY    47  37  68 N8        30.03R
GREAT FALLS    PTCLDY    54  43  66 E10       29.98S
MALMSTROM AFB  LGT RAIN  52  47  83 SE13G20   29.99F
HELENA         PTCLDY    51  41  68 CALM      29.96R
CONRAD           N/A     45  43  93 CALM      30.04R
$$

MTZ011-013-016-021-045-047-050-051-230900-
NORTH CENTRAL MONTANA

CITY           SKY/WX    TMP DP  RH WIND       PRES   REMARKS
HAVRE          CLOUDY    56  47  71 NE9       29.99R
LEWISTOWN      CLOUDY    52  48  86 CALM      30.00R
N BAR RANCH    CLOUDY    50  46  87 W3        30.02S
CHINOOK          N/A     57  46  67 CALM      29.99R
FORT BENTON      N/A     55  46  71 CALM      29.99R
$$

MTZ017>020-022>027-061-062-230900-
NORTHEAST MONTANA

CITY           SKY/WX    TMP DP  RH WIND       PRES   REMARKS
GLASGOW        MOCLDY    57  42  57 E10       30.02R
JORDAN           N/A     57  45  64 E8        30.00R
SIDNEY         PTCLDY    52  37  58 CALM      30.08S
WOLF POINT     CLOUDY    55  42  61 NE8       30.05R
MALTA            N/A     60  46  59 NE2       29.97R
PLENTYWOOD       N/A     54  36  50 E7        30.09R
SCOBEY           N/A     52  32  46 SE5       30.06R
$$

MTZ028>42-056>058-230900-
SOUTHCENTRAL AND SOUTHEAST MONTANA

CITY           SKY/WX    TMP DP  RH WIND       PRES   REMARKS
BAKER          PTCLDY    43  37  79 E8        30.05F
BILLINGS       MOCLDY    50  45  83 N5        29.95S
LIVINGSTON     CLOUDY    50  47  89 E6        29.97R
MILES CITY     MOCLDY    54  41  61 SE12      29.99F
BIG TIMBER       N/A     52  48  87 N6        29.99S
EKALAKA          N/A     44  37  76 E10       29.99F
FORSYTH          N/A     52  43  71 E5        29.97S
LAUREL           N/A     51  43  74 N3        29.94S
ROUNDUP          N/A     53  41  64 CALM      29.89F
$$

REGIONAL REPORTS...DAKOTAS

CITY           SKY/WX    TMP DP  RH WIND       PRES   REMARKS
WILLISTON      PTCLDY    50  38  63 SW3       30.10R
MINOT          CLOUDY    59  39  47 SW9       30.10S
DICKINSON      CLEAR     42  36  79 S7        30.08F
BEACH          FAIR      45  39  81 SE10      30.08S
CROSBY         FAIR      48  41  76 SW9       30.11R
WATFORD CITY   FAIR      50  36  57 SE5       30.09S
BISMARCK       CLEAR     46  40  79 SE5       30.15R
GRAND FORKS    CLEAR     51  41  68 SE6       30.13R
FARGO          CLEAR     54  40  59 S8        30.15R
BUFFALO SD       N/A     44  40  85 E12       30.00S
RAPID CITY     CLOUDY    47  44  90 SE5       30.05F
$$

REGIONAL REPORTS...WYOMING/IDAHO/WASHINGTON

CITY           SKY/WX    TMP DP  RH WIND       PRES   REMARKS
GILLETTE       CLOUDY    46  42  86 SE17      30.00F
SHERIDAN       PTCLDY    48  43  82 SE14G22   29.94S
BUFFALO WY     MOCLDY    46  44  93 S16       29.98F
CODY           CLOUDY    48  48 100 CALM      29.96S
YELLOWSTONE LA   N/A     37  35  92 CALM      30.03F
IDAHO FALLS    LGT RAIN  51  48  89 S5        29.92S
SALMON         MOCLDY    50  45  81 CALM      29.94S
BOISE          PTCLDY    58  50  75 NW5       29.87R
SPOKANE        CLOUDY    60  49  66 S8        29.91R
$$

REGIONAL REPORTS...ALBERTA

CITY           SKY/WX    TMP DP  RH WIND       PRES   REMARKS
EDMONTON       CLEAR     50  30  46 E2        30.04S
CALGARY        CLEAR     45  27  49 VRB2      30.08R
LETHBRIDGE     CLEAR     45  34  65 W9        30.04R
MEDICINE HAT   CLEAR     50  36  57 NE5       30.03R
$$

REGIONAL REPORTS...SASKATCHEWAN

CITY           SKY/WX    TMP DP  RH WIND       PRES   REMARKS
SWIFT CURRENT  MOCLDY    52  32  46 SE9       30.06R
REGINA         PTCLDY    52  37  58 E6        30.08S
SASKATOON      CLEAR     52  36  54 W5        30.06R
$$



USA.gov is the U.S. government's official web portal to all federal, state and local government web resources and services.